Theta_e
324 324 322 322 316 316 319 323 321 324 322 324 324 325 328 332 331 330 333 332 327 328 324 333 329 327 325 322 320 316 324 320 314 315 322 324 327 325 325 325 321 327 326 327 318 316 317 318 319
324 324 322 322 317 319 317 316 323 322 328 328 328 330 331 333 335 334 334 333 326 326 333 329 326 328 327 320 314 314 313 327 316 315 320 321 319 316 314 321 323 328 325 325 324 321 323 322 322
324 323 322 314 314 318 317 318 321 322 325 320 329 331 333 334 335 334 335 329 330 330 326 328 329 329 329 322 312 312 318 329 323 314 322 317 319 319 317 316 323 327 330 329 323 325 325 321 320
324 322 319 316 320 318 316 320 320 321 322 324 330 330 334 334 334 335 335 328 327 323 322 324 325 326 329 324 312 311 327 330 324 314 313 314 311 314 314 313 315 316 327 329 317 316 318 319 316
323 320 316 318 319 317 314 321 320 319 319 323 324 330 333 335 335 336 333 326 325 320 318 318 318 329 329 324 315 310 310 313 311 309 309 309 309 310 310 310 310 312 313 313 312 313 315 315 317
319 318 317 317 318 316 318 322 321 319 320 326 330 333 334 335 334 334 329 323 324 322 317 317 318 329 328 326 318 313 311 310 310 309 309 309 309 309 308 308 308 309 310 310 311 313 316 317 318
318 318 318 316 318 319 321 322 319 319 322 323 329 328 332 334 334 331 326 324 319 322 316 318 319 327 330 326 319 314 313 312 312 311 311 312 312 310 308 308 309 310 310 311 313 315 317 317 317
317 316 317 317 318 318 316 320 319 320 319 326 325 326 332 334 334 329 326 323 322 320 317 318 318 320 325 325 319 315 315 314 314 313 313 313 314 314 312 310 309 311 312 313 314 315 315 316 315
317 318 318 319 317 319 316 316 316 318 322 325 326 323 323 334 333 329 325 324 323 319 318 318 317 316 319 319 317 317 317 317 317 316 314 314 314 314 313 312 311 311 312 313 313 314 314 315 315
318 317 318 316 316 316 316 316 316 318 321 322 324 325 323 333 333 330 327 328 326 321 320 319 317 316 318 318 318 318 318 319 319 318 317 316 316 315 315 313 312 312 312 313 313 314 315 316 316
316 320 316 318 315 315 315 316 316 316 316 320 321 324 323 331 333 330 329 328 328 326 323 321 319 318 317 318 318 319 319 320 320 320 320 319 318 318 318 316 315 314 314 314 314 315 316 317 317
319 315 316 319 320 315 314 315 315 316 318 319 319 321 323 327 331 331 330 330 329 328 325 323 322 320 319 318 319 320 320 321 321 321 322 322 321 320 320 319 317 317 317 316 315 315 316 316 317
315 314 316 319 316 314 314 314 314 314 317 317 319 322 322 322 326 330 330 331 330 329 327 324 323 323 322 321 320 320 321 322 322 322 323 323 323 322 321 321 321 320 319 319 318 317 317 317 317
315 315 314 318 315 314 313 313 313 316 317 316 318 321 322 322 323 329 331 331 332 331 329 326 324 324 324 324 323 322 322 323 323 323 324 323 324 323 323 323 322 322 321 321 320 319 318 317 317
314 314 315 315 313 313 313 312 311 316 315 316 320 322 323 323 325 324 326 329 331 331 330 330 327 326 326 326 326 325 324 324 324 325 325 325 325 325 324 324 324 323 323 322 321 320 320 319 318
317 317 317 314 311 313 313 312 313 315 315 316 321 324 324 324 322 323 327 328 331 332 331 330 330 329 328 327 327 327 327 328 327 327 327 327 326 326 326 325 325 324 324 324 323 322 321 321 320
319 322 319 320 311 311 310 312 313 315 314 316 320 323 324 325 325 323 324 325 329 330 331 330 331 332 331 330 330 330 329 327 328 327 326 326 328 328 327 327 326 325 325 325 324 324 323 323 322
319 324 320 322 315 310 310 309 311 312 313 315 317 322 324 324 321 320 321 323 327 329 331 330 329 331 331 331 331 332 332 331 329 326 327 327 326 325 325 329 328 327 325 325 325 325 325 324 324
314 319 325 313 316 311 312 313 311 312 309 310 314 319 322 322 318 321 320 321 324 328 330 330 331 330 332 332 333 332 330 329 329 327 327 326 326 326 325 325 325 324 325 324 324 323 322 322 322
309 313 315 315 309 309 310 309 309 308 309 311 312 314 318 319 319 319 319 319 320 323 325 327 327 330 330 331 332 333 331 330 330 328 327 327 326 326 325 325 324 324 323 323 322 322 322 322 322
310 310 309 313 309 308 309 310 310 309 309 311 311 313 314 316 317 317 319 319 320 322 324 324 325 328 329 331 332 333 334 333 332 330 326 326 326 325 326 325 324 323 323 322 322 322 324 324 322
312 309 310 309 310 310 307 311 310 310 307 306 311 311 313 315 316 317 317 316 317 318 322 324 325 327 328 329 331 333 332 331 328 328 327 324 325 325 325 324 324 324 325 324 325 326 326 326 324
312 311 310 310 310 307 306 306 308 305 306 307 308 312 313 315 316 316 315 314 313 312 316 319 322 327 328 328 329 330 332 330 329 328 326 324 324 323 323 324 324 325 325 326 326 325 323 323 323
309 309 308 306 308 311 308 307 307 307 309 307 308 312 315 315 315 315 314 313 312 312 313 316 317 323 327 328 329 329 329 329 330 327 326 324 323 323 323 322 323 322 323 323 322 322 320 319 319
310 311 312 311 309 313 305 305 311 307 304 305 307 312 314 314 314 314 312 312 312 313 312 313 313 319 326 328 328 329 329 329 330 328 326 323 324 324 322 321 321 322 322 321 321 319 319 320 319
308 310 311 310 309 311 303 307 311 305 309 308 307 308 309 310 312 312 312 312 312 312 312 312 314 318 325 327 328 328 327 328 329 331 327 325 323 323 322 321 321 320 322 320 319 319 319 319 317
306 308 307 306 295 303 304 304 304 303 304 304 306 307 309 311 311 309 309 311 312 312 312 312 315 317 319 320 321 323 325 327 329 331 331 327 324 322 321 321 322 320 319 318 318 319 319 318 316
306 307 309 306 305 303 305 305 309 306 307 305 304 307 310 310 308 308 310 311 311 311 311 312 312 312 312 311 311 311 311 316 322 330 327 325 324 321 321 320 319 319 318 317 318 315 313 310 305
305 306 306 307 306 308 308 308 302 306 306 306 306 308 308 310 309 309 310 311 311 311 311 311 311 311 310 310 310 309 309 310 314 322 323 324 323 321 320 318 317 317 317 315 310 305 301 298 297
306 307 308 309 308 304 306 309 303 302 302 304 306 307 308 308 309 309 310 310 310 310 310 310 310 311 311 310 309 309 310 311 315 321 323 323 321 320 316 316 315 311 308 303 299 297 297 297 296
Wind_Speed
4 5 6 2 4 5 0 2 1 3 2 0 6 4 5 6 3 3 16 13 18 15 15 12 7 8 9 10 10 9 11 11 10 10 11 10 8 5 5 8 12 15 17 15 13 11 11 11 12
3 4 2 4 4 3 4 2 4 2 11 15 12 7 4 3 4 13 17 18 17 15 14 12 11 9 10 10 10 11 12 13 10 13 14 13 10 10 15 16 16 16 16 16 15 13 13 12 14
2 2 2 4 3 3 4 3 3 5 15 2 4 7 3 3 9 22 16 22 18 16 13 13 13 10 10 10 11 12 15 14 11 13 16 14 16 15 15 15 17 17 17 16 14 15 12 11 13
1 2 5 4 2 2 4 3 5 8 2 1 8 7 4 7 18 12 19 21 17 15 12 13 12 11 10 10 11 12 15 15 12 14 14 13 13 14 13 14 15 15 16 14 10 10 10 11 13
4 4 4 3 3 3 3 5 11 2 4 7 2 4 5 15 11 14 19 21 17 16 13 13 13 12 10 8 10 11 11 11 10 12 12 11 11 12 12 12 12 12 11 8 7 7 8 10 11
5 4 4 1 4 4 2 9 6 2 3 7 7 9 7 10 13 17 19 19 15 13 14 14 14 12 11 9 9 10 10 9 9 10 11 11 11 11 12 12 11 10 9 8 7 8 8 10 11
4 4 2 3 3 3 3 10 5 5 4 3 14 5 5 15 15 17 20 18 16 14 14 15 16 13 11 9 9 9 10 10 9 10 10 11 11 12 13 12 11 10 9 8 8 7 7 9 10
6 5 5 2 2 3 2 8 4 10 4 10 9 6 6 22 20 21 20 18 17 15 15 16 16 14 11 10 9 9 9 9 10 9 9 10 11 11 11 10 10 9 9 8 7 6 6 7 9
7 3 4 4 4 4 2 4 4 7 10 8 8 3 4 25 24 25 24 22 20 18 16 16 16 15 13 11 11 10 9 9 8 8 8 8 8 8 9 9 8 8 7 7 6 5 5 6 7
4 3 7 3 2 3 3 3 9 6 9 8 9 7 10 26 28 30 30 28 24 21 19 17 16 16 15 12 11 10 9 8 7 7 6 6 6 6 6 6 7 6 5 5 4 4 4 5 6
3 5 5 7 3 5 6 5 8 8 3 13 19 17 20 29 30 30 30 29 26 21 20 18 16 15 15 14 12 10 9 8 7 6 6 5 5 4 4 4 4 5 4 3 3 3 3 4 5
4 8 6 4 5 6 5 8 6 16 9 13 16 18 24 31 33 33 31 29 26 24 21 20 18 16 15 14 13 12 10 8 7 6 5 4 3 3 3 3 2 3 3 2 2 1 3 4 4
5 6 10 13 9 12 9 14 10 15 12 6 15 21 24 28 32 32 28 26 26 25 23 22 20 18 17 16 15 13 12 10 8 7 6 4 3 2 1 1 1 1 1 1 1 1 3 3 3
9 8 6 14 18 9 7 4 5 8 18 10 16 23 27 29 30 32 31 29 28 25 24 23 22 20 19 17 15 14 13 12 11 9 8 7 6 4 3 2 2 1 1 1 1 2 3 3 3
6 1 4 12 5 4 4 6 8 15 13 14 19 25 28 30 29 30 30 30 29 26 23 23 22 21 20 18 17 16 15 15 14 11 11 10 9 8 7 6 5 4 4 4 4 4 4 4 4
5 2 6 3 8 3 5 9 13 15 14 17 21 26 29 30 27 27 30 29 29 27 25 23 22 21 20 18 17 16 17 16 15 14 14 13 12 11 10 9 7 8 7 7 7 7 7 7 7
2 4 9 6 8 4 6 6 11 14 17 19 24 29 30 30 30 28 28 29 30 28 27 25 24 22 20 18 17 16 16 16 16 15 14 14 11 12 12 11 10 11 10 9 9 9 9 10 10
6 11 4 13 5 5 6 8 11 9 19 25 25 29 31 32 31 27 28 28 30 30 29 27 25 25 22 21 19 19 19 19 16 17 16 15 14 13 12 11 11 12 11 10 10 10 11 12 13
5 4 15 4 7 5 11 14 10 17 14 20 23 28 33 34 29 28 27 27 29 32 32 31 29 27 26 25 25 24 25 22 20 20 19 18 17 16 15 13 12 10 9 8 12 12 14 15 16
4 4 4 4 3 4 4 10 9 8 11 23 31 31 35 35 32 31 28 28 30 32 33 32 29 30 29 28 27 26 23 22 25 19 21 20 19 19 18 17 16 15 14 13 13 15 16 17 18
5 4 2 4 1 3 2 9 10 7 18 24 22 34 33 35 35 35 32 32 30 33 34 33 30 30 29 31 31 30 29 28 27 25 21 24 23 22 22 20 18 17 17 16 16 17 19 17 18
8 6 3 2 2 4 2 5 12 11 11 12 32 26 35 35 35 34 32 33 34 35 36 34 32 32 31 32 35 35 31 30 26 23 21 17 22 23 22 21 20 18 19 19 20 19 18 17 17
4 7 6 4 3 4 4 4 5 6 10 12 18 31 31 36 38 39 35 34 31 35 37 35 35 37 36 35 32 33 34 28 21 18 17 16 16 17 18 20 20 20 20 19 16 16 15 14 15
9 6 6 5 3 3 9 6 5 8 13 4 16 34 38 37 39 41 37 34 32 31 35 34 33 36 37 36 35 33 32 29 25 22 19 14 14 15 16 19 20 21 20 19 17 15 14 13 14
12 14 2 2 2 12 3 5 17 7 7 7 12 32 37 41 44 42 39 36 33 33 33 34 33 34 35 36 36 35 33 31 28 24 22 20 21 18 17 18 18 18 16 16 14 14 14 13 11
12 15 7 7 4 7 4 8 10 11 21 17 18 19 20 27 36 46 46 40 36 35 34 33 32 32 34 35 35 35 34 32 29 27 26 23 23 20 16 15 17 20 15 14 14 15 13 13 14
5 11 5 5 1 3 5 9 8 9 10 12 21 21 25 24 30 34 39 40 36 34 34 34 32 32 32 32 32 32 33 31 30 29 30 27 24 18 17 16 13 13 14 15 13 12 11 14 12
9 10 4 1 2 5 5 5 9 3 11 11 10 25 29 23 24 28 31 33 32 30 30 31 30 30 30 31 33 33 32 30 28 29 27 26 24 19 18 18 16 16 15 14 15 12 10 9 7
3 5 4 4 6 6 8 8 8 11 11 12 15 28 27 28 28 29 29 29 28 28 29 29 28 28 29 29 29 28 29 29 28 26 26 26 24 22 22 22 18 17 15 13 10 7 6 6 6
2 7 15 6 13 5 2 11 3 8 7 13 21 23 21 22 25 27 27 26 26 26 26 25 24 24 23 22 21 20 22 25 26 28 28 25 22 20 18 16 15 13 12 10 8 6 5 5 7
Wind_Direction
276 314 336 32 50 62 261 250 288 126 107 332 136 144 154 80 129 188 148 148 153 153 144 144 153 124 104 100 107 113 111 104 110 115 118 123 134 145 135 127 106 100 97 98 97 92 86 75 71
255 309 344 78 83 58 272 266 214 175 130 108 94 94 57 83 100 141 144 147 151 151 144 143 135 127 116 109 106 108 113 102 99 107 104 111 123 126 105 106 103 100 100 94 94 91 84 77 71
283 333 47 89 107 158 228 208 181 126 145 86 116 77 81 96 129 140 145 147 152 149 149 143 137 136 119 105 100 106 104 104 102 104 105 101 106 102 103 102 99 100 101 98 98 92 84 70 66
262 63 61 79 174 232 203 188 142 135 197 112 125 69 76 108 132 144 147 151 154 152 153 145 142 135 126 105 105 107 110 115 106 101 105 105 98 103 98 98 102 103 105 103 96 87 80 70 70
67 61 54 55 296 266 251 169 150 159 150 135 113 121 103 138 144 151 155 156 159 156 154 150 143 140 134 120 104 103 109 110 101 88 91 95 94 99 99 96 98 101 104 100 83 74 74 71 70
60 49 56 263 273 285 260 165 149 152 158 147 114 112 153 162 159 156 159 158 164 163 160 153 149 150 147 124 110 104 103 105 103 94 90 87 87 92 98 93 87 87 96 90 84 84 81 69 65
101 73 264 192 266 305 192 159 165 162 158 197 145 105 170 165 162 158 160 162 167 174 170 159 157 155 151 140 125 115 113 113 112 101 91 91 95 100 98 90 89 91 98 98 94 88 73 61 50
120 99 146 262 256 274 199 170 190 170 184 158 165 167 190 170 166 163 164 170 171 177 177 167 164 162 155 153 141 133 126 119 109 102 98 87 86 91 89 89 94 91 91 90 81 67 51 39 36
144 90 155 200 170 266 195 184 163 172 153 172 199 190 193 172 169 171 170 173 179 183 183 177 173 169 167 158 155 149 136 121 110 106 104 101 99 100 90 83 93 93 93 94 84 59 32 26 32
121 130 193 198 216 307 280 224 172 167 166 207 206 197 173 178 176 181 180 180 184 186 184 186 181 179 179 172 167 160 151 141 129 123 115 107 102 101 97 89 89 95 91 91 86 67 31 14 19
161 188 186 230 325 352 296 247 197 159 216 210 203 190 174 181 184 191 191 193 189 188 190 189 190 189 188 188 181 177 170 163 155 144 130 118 109 101 103 95 86 90 96 97 94 73 32 12 11
160 195 198 246 284 321 310 300 225 203 214 234 221 210 184 187 193 195 200 198 193 194 195 195 193 198 200 199 197 192 188 185 180 170 156 146 136 124 108 105 101 97 93 98 94 59 21 11 9
188 180 210 254 303 314 283 252 241 235 220 232 208 204 197 199 201 201 202 203 199 200 198 200 202 201 205 208 207 204 202 200 202 200 195 195 190 184 153 111 106 96 93 78 55 7 356 359 11
207 186 181 238 247 291 274 263 197 253 214 222 207 207 203 205 205 205 206 205 209 206 203 204 207 209 210 216 218 217 217 216 216 215 216 221 223 226 232 239 245 242 246 265 304 322 341 346 349
114 174 218 237 196 258 316 280 214 236 213 214 205 207 206 208 208 215 213 210 212 212 210 211 213 215 218 219 222 225 226 229 231 229 229 233 235 236 241 241 252 262 270 280 285 289 302 317 322
131 132 224 188 163 234 148 274 269 226 209 212 209 208 209 210 216 219 222 221 218 218 216 216 217 218 220 221 224 229 232 236 238 239 242 240 242 245 248 250 255 259 265 273 283 287 291 295 297
249 207 217 298 203 142 169 270 268 233 214 214 215 213 213 216 219 222 226 225 226 225 223 220 224 227 227 227 230 237 240 245 243 241 243 246 251 251 253 255 254 259 261 267 277 288 293 292 294
186 208 216 224 213 194 215 239 282 266 218 221 219 218 219 220 224 222 226 227 228 229 230 230 230 231 231 233 232 237 242 246 248 245 243 242 249 255 260 263 260 260 267 280 291 294 302 308 304
159 180 233 250 213 201 237 233 238 259 241 238 230 224 224 226 228 226 228 229 228 231 232 232 231 232 230 230 231 232 233 237 241 243 246 249 253 253 258 262 267 270 285 292 285 292 297 299 301
160 182 246 295 301 189 279 252 241 220 236 238 234 231 230 232 231 230 227 226 225 228 230 230 229 233 233 234 238 242 248 247 248 260 253 250 250 254 257 259 265 270 273 276 280 285 292 296 296
216 180 155 241 293 249 342 259 245 249 234 246 246 239 240 237 233 233 229 231 229 228 228 227 227 230 232 237 239 241 244 250 247 248 247 247 251 256 259 263 264 267 271 273 277 279 277 281 287
214 148 129 45 311 245 202 278 227 226 232 222 235 237 236 236 237 239 238 237 235 235 232 231 230 233 235 237 240 240 243 248 249 248 256 251 249 251 255 260 263 263 265 269 274 280 288 286 289
170 147 166 159 101 359 230 267 242 167 238 235 229 237 240 237 238 239 236 240 241 238 234 234 233 233 235 236 237 238 240 245 248 250 245 259 255 254 250 250 252 255 257 261 263 272 276 286 289
142 59 32 41 109 246 216 196 230 213 229 231 231 237 239 242 240 239 239 237 236 233 230 232 234 235 233 233 233 234 236 239 238 241 244 251 247 249 250 250 251 252 256 262 265 266 272 279 281
163 153 174 212 219 236 148 167 243 261 238 229 219 237 238 240 241 240 233 229 233 233 230 231 231 232 233 233 233 235 236 240 240 237 243 242 249 252 256 253 250 251 252 253 258 265 269 267 269
191 183 160 197 223 251 82 227 247 218 249 238 248 250 252 246 247 245 239 233 230 229 227 226 226 226 229 234 235 238 239 238 237 234 235 236 245 248 245 244 242 250 249 255 259 263 256 277 279
196 208 186 108 33 50 206 272 300 249 265 253 250 252 249 252 248 241 230 224 222 224 225 223 222 222 227 232 235 236 238 235 230 228 226 227 237 243 242 231 231 244 248 255 243 244 253 260 269
172 158 174 146 206 258 273 265 219 240 226 239 241 243 247 245 235 223 215 213 213 217 219 220 221 226 231 236 238 238 236 231 223 220 225 229 228 233 234 235 237 239 228 226 239 246 248 256 267
149 173 196 166 164 217 254 258 213 215 223 236 238 249 250 230 217 209 207 209 210 214 219 223 226 232 238 238 236 232 227 222 218 212 214 219 218 231 233 236 218 219 225 224 222 222 237 258 280
231 190 198 198 218 230 186 259 215 245 263 281 275 273 264 240 217 209 210 213 214 217 223 227 226 225 224 220 216 210 208 205 201 198 202 209 225 226 215 201 202 199 198 198 206 222 251 286 303